This demonstration page uses our WeatherBlox Daily Observations layout. Learn more.

Left ArrowRight Arrow

39.01783, -85.05884

Hourly Observations for May 15, 2018

Temp ( °F °C ) Dew Point ( °F °C ) Humidity (%) Winds ( mph kmh ) Pressure ( in mb ) Visibility ( mi km ) Precip ( " mm )
12:52 am 00:52 Partly Cloudy 73 22.8 62 16.7 69 69 SSW 6 9 29.85 1011 10 16 0.00 0.00
1:52 am 01:52 Partly Cloudy 72 22.2 63 17.2 73 73 S 7 11 29.85 1011 10 16 0.00 0.00
2:52 am 02:52 Mostly Cloudy 71 21.7 63 17.2 76 76 S 7 11 29.85 1011 10 16 0.00 0.00
3:52 am 03:52 Mostly Clear 70 21.1 63 17.2 79 79 S 9 15 29.83 1010 9 14 0.00 0.00
4:52 am 04:52 Cloudy 71 21.7 63 17.2 76 76 SW 6 9 29.85 1011 10 16 0.00 0.00
5:52 am 05:52 Mostly Cloudy 71 21.7 63 17.2 76 76 WSW 6 9 29.88 1012 9 14 0.00 0.00
6:52 am 06:52 Mostly Cloudy 71 21.7 63 17.2 76 76 WSW 7 11 29.89 1012 8 13 0.00 0.00
7:52 am 07:52 Partly Cloudy 73 22.8 62 16.7 69 69 WSW 6 9 29.91 1013 10 16 0.00 0.00
8:52 am 08:52 Mostly Cloudy 76 24.4 60 15.6 58 58 SW 7 11 29.90 1012 10 16 0.00 0.00
9:52 am 09:52 Partly Cloudy 78 25.6 61 16.1 56 56 SW 7 11 29.90 1013 10 16 0.00 0.00
10:52 am 10:52 Mostly Cloudy 80 26.7 62 16.7 54 54 SSW 5 7 29.91 1013 10 16 0.00 0.00
11:52 am 11:52 Mostly Cloudy 83 28.3 61 16.1 48 48 VRB 6 9 29.91 1013 10 16 0.00 0.00
12:52 pm 12:52 Cloudy 85 29.4 61 16.1 45 45 W 7 11 29.92 1013 10 16 0.00 0.00
1:52 pm 13:52 Mostly Cloudy 86 30 61 16.1 43 43 W 8 13 29.90 1012 10 16 0.00 0.00
2:52 pm 14:52 Mostly Cloudy 87 30.6 59 15 39 39 W 14 22 29.88 1012 10 16 0.00 0.00
3:52 pm 15:52 Mostly Cloudy 88 31.1 58 14.4 36 36 VRB 5 7 29.86 1011 10 16 0.00 0.00
4:52 pm 16:52 Mostly Cloudy 88 31.1 59 15 38 38 W 12 19 29.85 1011 10 16 0.00 0.00
5:52 pm 17:52 Partly Cloudy 87 30.6 58 14.4 37 37 WNW 12 19 29.85 1011 10 16 0.00 0.00
6:52 pm 18:52 Partly Cloudy 87 30.6 57 13.9 36 36 N 12 19 29.84 1011 10 16 0.00 0.00
7:12 pm 19:12 Partly Cloudy 84 28.9 62 16.7 48 48 N 14 22 29.83 1010 10 16 0.00 0.00
7:52 pm 19:52 Mostly Cloudy 80 26.7 65 18.3 60 60 NNE 16 26 29.85 1011 10 16 0.00 0.00
8:52 pm 20:52 Cloudy 77 25 65 18.3 66 66 NNE 10 17 29.87 1012 10 16 0.00 0.00
9:52 pm 21:52 Cloudy 76 24.4 64 17.8 67 67 E 9 15 29.89 1012 10 16 0.00 0.00
10:52 pm 22:52 Cloudy 74 23.3 63 17.2 69 69 NE 12 19 29.90 1013 10 16 0.00 0.00
11:52 pm 23:52 Mostly Cloudy 72 22.2 63 17.2 73 73 E 12 19 29.92 1013 10 16 0.00 0.00

Powered by AerisWeather